Preview of NWS' New Version of Forecast
This preview is not operational and should not be used for support decisions.

Regional Weather Roundup (RWR)

Issued by National Weather Service (NWS)

                            
000
ASUS44 KMEG 181100
RWRTN 
TENNESSEE HOURLY STATE WEATHER ROUNDUP
NATIONAL WEATHER SERVICE MEMPHIS TN
600 AM CDT THU JUL 18 2019

TNZ002-004-019-021-049-052-054-088>092-181200-
WEST TENNESSEE
  
CITY           SKY/WX    TMP DP  RH WIND       PRES   REMARKS
MEMPHIS INTL   MOCLDY    79  76  90 SW7       30.01R                  
NWS MEMPHIS      N/A     79 N/A N/A MISG        N/A                   
JACKSON        FAIR      75  74  96 SW3       30.02R                  
DYERSBURG      FAIR      75  74  96 S3        30.00S                  
$$

TNZ008-025-027-028-033-062-065-066-181200-
NORTH MIDDLE TENNESSEE
  
CITY           SKY/WX    TMP DP  RH WIND       PRES   REMARKS
NASHVILLE      MOCLDY    74  69  85 S3        30.02R                  
CLARKSVILLE    FAIR      72  71  97 CALM      30.01R                  
SMYRNA         FAIR      73  70  90 CALM      30.03R                  
CROSSVILLE     FAIR      70  68  93 VRB5      30.08S                  
$$

TNZ061-075-076-078-094-096-097-181200-
SOUTH MIDDLE TENNESSEE
  
CITY           SKY/WX    TMP DP  RH WIND       PRES   REMARKS
$$

TNZ017-018-042-046-047-181200-
NORTHEAST TENNESSEE
  
CITY           SKY/WX    TMP DP  RH WIND       PRES   REMARKS
TRI CITIES     MOCLDY    73  71  93 W5        30.06R                  
$$

TNZ012-013-036-069-073-074-181200-
CENTRAL EAST TENNESSEE
  
CITY           SKY/WX    TMP DP  RH WIND       PRES   REMARKS
KNOXVILLE      CLOUDY    74  72  93 SW7       30.03R                  
OAK RIDGE      CLOUDY    76  73  91 SW3       30.04S                  
$$

TNZ083-085-099-181200-
SOUTHEAST TENNESSEE
  
CITY           SKY/WX    TMP DP  RH WIND       PRES   REMARKS
CHATTANOOGA    MOCLDY    76  72  87 SE5       30.04R                  
$$

SKY/WX REPORTED AS FAIR MEANS FEW OR NO CLOUDS BELOW
12 THOUSAND FEET.